Tracking 28794 objects as of 19-Apr-2024
HD Live streaming from Space Station
objects crossing your sky now

COSMOS 2292

Track COSMOS 2292 now!
10-day predictions
COSMOS 2292 is classified as:


NORAD ID: 23278
Int'l Code: 1994-061A
Perigee: 401.4 km
Apogee: 1,660.2 km
Inclination: 83.0 °
Period: 105.6 minutes
Semi major axis: 7401 km
RCS: 2.958 m2 (large)
Launch date: September 27, 1994
Source: Commonwealth of Independent States (former USSR) (CIS)
Launch site: PLESETSK MISSILE AND SPACE COMPLEX (PKMTR)
Your satellite tracking list
Your tracking list is empty




NASA's NSSDC Master Catalog

Two Line Element Set (TLE):
1 23278U 94061A   24110.54985508  .00005768  00000-0  49450-3 0  9995
2 23278  82.9725 135.1618 0850326 198.7789 158.0151 13.63304722450208
Source of the keplerian elements: AFSPC